Temperature
22 20 20 20 20 22 21 21 20 20 20 19 18 17 17 17 17 17 17 17 17 18 18 18 17 17 17 16 16 16 16 15 15 15 15 15 15 14 14 14 14 14 14 14
20 21 21 22 21 21 21 20 20 19 20 19 18 17 17 17 17 17 17 17 17 17 18 17 17 17 16 16 16 16 15 15 15 15 15 14 14 14 14 14 14 14 14 14
22 22 22 22 22 21 21 20 20 20 19 18 18 17 17 17 17 17 17 17 17 17 17 17 17 17 16 16 16 16 15 15 15 15 14 14 14 14 14 13 13 13 13 13
22 22 23 22 22 21 20 21 20 20 18 17 18 17 17 17 16 16 17 17 17 17 17 17 17 17 16 16 16 15 15 15 14 14 14 14 14 13 13 13 13 13 13 13
22 22 22 22 22 21 21 20 20 19 18 17 17 17 16 16 16 16 16 17 17 17 17 17 17 16 16 16 15 15 15 14 14 14 14 14 13 13 13 13 13 13 13 13
22 22 22 22 22 21 20 19 19 16 16 17 17 17 16 15 16 16 16 16 16 16 16 16 16 16 16 15 15 15 14 14 14 14 14 13 13 13 13 13 13 13 12 12
22 22 22 22 22 21 20 18 18 18 16 17 17 16 16 16 16 16 16 16 16 16 16 16 16 16 15 15 15 14 14 14 14 14 13 13 13 13 13 13 12 12 12 12
21 21 22 22 22 21 19 18 18 18 17 16 17 16 16 16 16 16 16 16 16 15 15 15 16 15 15 15 15 14 14 14 14 14 13 13 13 13 13 12 12 12 12 12
20 21 22 22 21 21 20 18 17 16 17 16 16 16 16 16 16 15 15 15 15 15 15 15 15 15 15 15 14 14 14 14 14 13 13 13 13 13 13 12 12 12 12 12
20 21 21 21 21 20 19 17 15 16 17 17 17 16 15 15 15 14 14 14 15 15 15 15 15 15 15 15 14 14 14 14 14 13 13 13 13 13 12 12 12 12 12 12
20 19 20 20 20 20 19 17 15 14 15 16 16 15 15 14 14 14 14 15 15 15 15 15 15 15 14 14 14 14 14 13 13 13 13 13 13 12 12 12 12 12 12 12
17 16 18 19 19 19 19 18 15 16 15 14 14 14 15 14 14 14 14 15 15 15 15 15 14 14 14 14 14 14 13 13 13 13 13 13 13 12 12 12 12 12 12 12
17 16 17 18 18 18 18 17 15 13 13 13 14 15 15 14 14 14 14 14 14 15 15 14 14 14 14 14 14 13 13 13 13 13 13 13 13 12 12 12 12 12 12 12
17 15 17 18 18 18 18 17 16 14 14 14 14 14 14 14 13 13 14 14 14 14 14 14 14 14 14 13 13 13 13 13 13 13 13 13 12 12 12 12 12 12 12 12
16 16 17 17 17 17 17 17 16 15 15 14 15 14 14 13 13 13 14 14 13 14 14 14 13 13 13 13 13 13 13 13 13 12 12 12 12 12 12 12 12 12 12 12
14 16 17 17 17 17 17 17 16 16 15 14 14 14 13 13 13 13 13 13 13 13 13 13 13 13 13 13 13 13 13 12 12 12 12 12 12 12 12 12 12 12 12 11
14 15 15 15 16 17 16 16 16 15 15 14 14 14 13 12 13 13 13 13 13 13 13 13 13 13 13 13 13 12 12 12 12 12 12 12 12 12 11 11 11 11 11 11
14 13 12 14 16 17 16 16 16 15 14 14 13 13 13 13 13 14 14 13 13 13 13 13 13 13 13 13 12 12 12 12 12 12 12 12 12 12 12 11 11 11 11 11
13 13 12 13 15 15 16 16 15 15 14 14 13 13 13 13 13 13 14 14 13 13 13 13 13 12 12 12 12 12 12 12 12 12 12 12 11 11 11 11 11 11 11 11
12 12 12 13 15 15 16 16 16 15 14 14 13 12 12 12 11 12 14 13 13 13 13 13 12 12 12 12 12 12 12 12 12 11 11 11 11 11 11 11 11 11 11 11
14 13 13 13 14 14 15 15 16 15 14 14 14 14 13 12 12 14 13 13 13 13 13 13 12 12 12 12 12 12 12 12 11 11 11 11 11 11 11 11 11 11 11 11
14 13 13 12 14 14 15 15 14 14 15 15 15 15 14 14 14 14 13 13 13 13 13 12 12 12 12 12 12 12 12 11 11 11 11 11 11 11 11 11 11 11 11 11
12 12 12 12 13 14 15 15 16 16 15 15 15 15 15 14 14 14 13 13 13 13 12 12 12 12 12 12 12 12 11 11 11 11 11 11 11 11 11 11 11 11 11 10
13 11 11 12 13 14 15 15 16 16 16 15 15 15 14 14 14 13 13 13 13 12 12 12 12 12 12 12 12 11 11 11 11 11 11 11 11 11 11 10 10 10 10 10
13 12 11 12 12 14 14 15 15 15 15 15 14 14 14 14 13 13 13 13 12 12 12 12 12 12 12 12 11 11 11 11 11 11 11 11 11 10 10 10 10 10 10 10
11 12 12 12 13 12 14 15 15 15 14 14 14 14 13 13 13 13 13 12 12 12 12 12 12 12 12 12 12 11 11 11 11 11 11 11 11 10 10 10 10 10 10 10
Wind_Speed
2 4 2 6 7 4 3 2 2 2 0 4 5 3 2 2 3 3 3 2 1 1 1 0 1 1 1 1 1 0 1 1 1 1 1 1 2 2 2 2 3 3 3 3
5 2 6 3 3 3 4 2 1 1 2 4 5 4 2 2 2 1 2 1 1 1 1 1 1 1 1 2 2 1 1 2 2 2 2 2 2 2 2 3 3 3 3 3
5 5 2 3 2 2 2 5 5 3 2 4 4 4 3 3 2 2 1 1 1 1 2 2 1 2 2 2 2 2 2 2 2 1 1 1 1 2 2 2 3 3 3 3
3 3 2 2 2 4 3 4 5 4 4 1 2 1 3 2 3 2 2 2 2 2 2 2 2 2 3 3 3 2 2 2 2 1 1 1 2 3 3 3 3 4 3 3
2 1 3 2 4 4 4 1 4 4 4 2 2 2 5 1 2 3 3 3 3 3 2 3 3 3 4 3 3 2 2 3 2 1 2 2 2 3 3 2 3 4 4 3
3 1 2 2 1 2 3 5 6 6 5 1 2 3 4 2 3 3 3 5 3 3 3 4 3 3 3 3 3 3 2 3 3 2 3 3 3 3 3 3 3 3 3 3
6 5 3 1 2 3 5 6 4 5 4 3 1 2 5 3 2 2 3 4 3 3 3 4 4 4 4 4 4 3 3 4 4 3 4 3 4 4 4 4 4 4 3 3
1 5 4 1 3 3 2 7 6 4 4 4 2 3 4 1 1 1 2 2 2 3 3 4 4 4 5 5 5 4 4 5 5 4 4 4 4 3 3 4 4 4 4 5
4 5 4 1 0 5 4 3 5 6 2 1 3 3 3 2 3 4 4 3 3 4 4 5 5 5 5 5 5 4 4 5 5 5 5 4 4 3 4 4 4 4 4 4
5 3 4 3 5 5 5 7 5 4 3 2 4 3 3 4 4 4 4 4 5 5 5 6 5 5 5 5 5 4 4 5 5 5 4 4 4 4 4 4 4 5 4 3
3 3 4 4 3 1 3 4 5 4 4 4 3 5 3 4 3 3 4 4 4 5 5 6 6 6 6 5 5 4 4 4 5 5 5 4 4 4 4 4 5 4 4 4
3 4 0 3 3 1 3 4 5 4 2 3 3 5 3 2 1 2 3 4 4 5 6 6 5 5 5 5 6 5 5 5 5 4 4 4 4 4 3 4 4 4 4 4
5 5 3 5 5 5 4 3 4 6 5 4 3 4 2 2 2 2 3 5 5 6 6 6 5 5 6 6 6 6 5 5 5 4 4 4 4 4 4 5 4 4 4 4
5 5 5 6 6 2 1 1 2 5 4 3 5 5 4 4 3 4 4 5 5 5 6 6 6 6 6 7 6 6 6 6 5 4 4 4 4 4 5 4 4 4 4 4
5 3 2 2 1 2 1 0 1 3 5 6 5 4 5 4 4 3 3 4 4 6 6 6 6 6 6 6 6 6 6 6 5 5 4 5 5 4 4 4 4 4 3 3
4 4 2 2 2 2 1 1 0 1 2 3 1 2 3 2 1 2 3 3 4 5 6 6 6 6 6 6 6 6 6 6 5 5 5 5 5 4 4 4 4 4 4 4
3 5 3 2 2 2 3 3 3 2 2 4 4 4 2 1 1 2 3 3 4 5 6 6 6 6 6 6 5 6 6 5 4 4 5 5 4 4 5 4 4 4 4 3
6 5 4 2 2 3 5 2 4 3 1 3 3 3 3 3 2 2 2 2 4 5 6 6 6 6 6 6 5 5 5 4 4 4 5 5 4 4 4 4 4 4 4 3
4 7 4 3 2 4 4 2 4 4 2 3 4 3 1 1 3 4 4 3 4 5 5 5 5 5 6 6 5 5 5 4 5 5 6 6 4 4 4 4 5 4 3 3
6 5 5 4 3 5 5 2 3 4 2 4 5 4 3 2 2 4 5 4 4 5 4 4 5 5 5 6 5 5 5 5 5 6 6 6 4 4 4 5 4 3 2 3
3 4 3 3 3 6 5 1 3 2 5 4 5 5 5 4 5 5 4 4 4 4 5 4 4 4 5 5 4 5 5 6 7 6 5 5 4 4 4 4 3 3 3 3
4 4 3 4 2 6 2 4 5 6 3 4 5 5 5 5 3 3 3 4 4 5 5 5 4 5 6 5 4 5 6 7 6 5 4 5 5 4 4 3 4 3 2 3
4 5 5 6 5 4 3 4 3 4 3 3 4 4 5 4 3 2 3 4 4 4 5 4 4 5 6 5 4 5 7 7 5 5 5 5 5 4 4 3 4 3 2 2
1 2 3 1 3 2 1 0 1 2 3 3 3 4 4 3 3 3 3 3 4 4 5 4 4 5 7 7 6 6 7 5 4 4 5 5 5 5 4 3 3 3 3 3
3 3 2 1 3 2 2 1 1 2 2 2 2 2 3 3 3 3 3 3 4 4 4 4 4 5 7 7 7 7 6 4 4 5 5 5 4 4 4 4 3 4 4 4
3 5 5 5 6 4 4 3 2 3 2 2 2 1 0 2 3 3 3 3 3 4 4 5 5 6 7 7 7 7 6 4 4 5 5 4 4 3 3 3 5 5 4 5
Wind_Direction
73 80 211 222 201 194 169 180 263 281 134 87 90 74 23 52 83 88 96 108 108 224 278 41 92 68 36 4 355 222 244 276 291 314 308 297 281 275 273 259 254 243 227 214
48 273 242 193 155 156 159 153 239 329 75 112 97 60 21 51 84 116 148 157 211 268 325 295 255 261 253 265 274 287 278 275 269 253 253 244 251 267 258 270 278 257 239 219
182 236 211 141 149 155 213 190 210 198 53 73 94 24 0 0 34 36 22 228 244 222 239 268 276 274 269 272 268 274 267 272 278 277 309 332 344 334 309 293 284 273 257 239
222 254 148 140 213 166 263 229 190 170 123 251 118 210 282 312 339 334 308 303 298 301 307 283 290 293 283 275 287 298 292 298 298 297 244 253 264 271 263 266 275 287 277 257
261 199 159 197 236 174 218 127 128 131 128 77 40 131 281 316 301 295 299 301 309 307 299 284 276 273 286 296 304 304 308 310 305 295 252 245 268 265 275 281 283 287 282 272
280 292 165 209 269 146 135 73 60 55 74 43 266 166 270 251 244 277 284 291 302 309 308 297 294 302 309 317 313 308 309 302 302 301 288 259 258 269 284 291 288 287 283 274
342 334 334 125 46 21 78 83 35 6 11 257 250 167 249 255 232 241 276 287 295 310 308 299 304 308 310 308 298 299 300 298 299 291 280 270 261 255 254 264 268 277 280 276
38 301 295 294 189 194 150 133 153 198 225 267 325 232 257 279 0 349 326 312 320 325 305 296 292 291 293 293 288 288 289 289 288 284 278 270 257 252 255 254 260 263 262 264
179 261 297 313 259 137 125 134 159 137 142 278 278 279 312 13 6 357 353 353 326 308 301 297 299 299 297 297 293 286 288 294 292 287 288 283 274 265 264 262 260 265 262 262
170 240 306 322 55 36 113 137 95 111 146 262 287 280 271 293 299 315 325 318 310 311 312 307 303 300 298 295 294 295 288 287 291 295 289 288 279 271 265 262 264 267 265 257
131 157 325 18 50 341 70 80 96 106 140 165 250 271 234 221 251 268 278 286 291 300 301 298 299 300 301 308 307 301 299 296 297 295 293 291 287 277 268 263 266 267 270 266
121 119 334 303 306 352 113 130 137 138 210 166 178 264 295 195 241 254 287 298 301 303 300 301 303 309 316 315 312 309 304 299 293 294 297 298 299 301 291 279 274 271 276 278
128 108 64 350 346 7 50 73 112 118 116 148 171 258 334 25 4 322 309 315 316 315 314 316 317 315 315 316 317 314 309 302 302 307 308 311 310 310 303 299 297 286 277 282
111 102 152 193 225 230 321 40 119 120 140 191 212 232 293 310 313 314 313 312 317 319 320 323 322 318 319 323 325 322 320 316 317 321 316 310 305 303 304 311 314 306 294 284
96 122 167 219 244 144 158 179 140 152 177 187 220 217 263 270 280 292 304 320 332 331 330 330 327 323 326 329 328 326 325 327 325 324 317 305 306 313 315 315 314 317 312 300
75 123 104 19 31 89 56 319 136 166 158 177 175 270 266 300 342 345 329 327 326 321 321 323 324 322 322 322 323 324 324 325 328 321 312 309 314 317 312 309 314 325 321 316
96 122 114 242 303 25 306 266 195 181 187 169 198 229 259 331 286 279 284 301 305 309 310 312 315 313 311 312 314 317 317 324 328 320 316 314 313 316 312 314 322 317 309 312
130 115 122 123 62 238 251 286 158 145 211 191 192 213 214 228 261 280 268 273 295 305 308 310 314 317 315 315 319 318 321 324 322 324 327 322 317 313 315 318 312 306 303 303
126 129 116 119 170 271 279 224 166 158 253 212 192 208 205 81 25 332 289 269 275 288 298 299 303 307 315 319 319 328 331 331 331 325 319 312 308 309 312 309 301 300 310 310
64 88 112 127 165 235 246 251 159 113 282 233 182 189 177 103 31 286 289 293 297 308 310 309 317 324 326 322 328 337 330 331 320 309 305 307 309 304 301 295 295 301 300 296
59 62 114 152 204 259 260 245 122 155 245 211 183 187 176 189 215 251 287 293 296 306 310 319 329 327 315 318 333 334 328 314 299 299 306 313 310 302 295 296 299 300 302 310
170 152 168 147 185 254 250 130 169 209 205 168 181 189 190 211 240 264 279 291 309 319 322 328 332 322 320 328 336 328 315 306 309 313 316 315 311 308 311 306 305 306 302 304
182 185 181 182 210 251 248 207 209 165 169 190 184 193 181 193 234 261 277 292 307 311 316 319 318 317 322 326 325 314 307 313 322 324 317 311 313 313 308 303 303 306 304 293
244 134 130 196 273 284 301 26 92 145 171 184 176 176 172 195 227 254 275 294 307 311 311 314 321 320 316 317 315 300 303 312 317 313 308 310 316 318 318 312 295 292 291 285
213 142 120 231 268 347 348 328 148 97 101 106 114 158 183 192 234 241 259 279 289 299 304 310 309 301 301 308 311 308 309 314 311 307 306 310 309 308 310 307 292 281 270 256
204 174 170 215 220 186 226 238 152 116 120 133 111 66 267 206 230 246 264 275 282 292 300 305 304 303 303 306 307 308 310 309 305 306 306 305 301 299 297 303 315 306 286 290
Height
1493 1499 1504 1501 1500 1501 1505 1509 1513 1510 1505 1509 1512 1513 1511 1509 1508 1508 1508 1508 1509 1509 1509 1509 1509 1509 1509 1508 1507 1506 1505 1504 1503 1501 1499 1498 1497 1496 1496 1495 1494 1494 1493 1493
1499 1502 1495 1494 1496 1500 1504 1510 1512 1510 1506 1510 1514 1515 1512 1510 1510 1510 1509 1509 1509 1509 1509 1509 1508 1508 1507 1507 1505 1504 1503 1502 1500 1499 1497 1496 1494 1493 1492 1492 1491 1490 1490 1489
1499 1496 1491 1494 1498 1501 1504 1508 1508 1510 1509 1510 1514 1520 1516 1512 1512 1511 1511 1510 1509 1509 1508 1508 1507 1507 1506 1505 1503 1502 1501 1500 1498 1496 1495 1493 1491 1490 1489 1488 1487 1487 1487 1486
1495 1491 1492 1495 1498 1500 1507 1499 1502 1506 1515 1522 1518 1531 1520 1515 1514 1511 1511 1510 1509 1509 1508 1507 1507 1506 1505 1503 1502 1501 1499 1498 1496 1494 1492 1490 1488 1486 1485 1485 1484 1484 1484 1483
1495 1491 1492 1496 1495 1495 1499 1496 1500 1505 1514 1522 1522 1529 1525 1517 1516 1512 1510 1509 1508 1508 1507 1507 1506 1505 1504 1502 1501 1499 1497 1496 1494 1492 1490 1488 1486 1485 1483 1483 1482 1481 1480 1480
1491 1489 1490 1491 1490 1492 1495 1500 1505 1513 1520 1530 1524 1529 1528 1520 1515 1512 1510 1509 1508 1507 1506 1506 1505 1504 1502 1501 1499 1497 1495 1493 1491 1489 1488 1486 1484 1483 1481 1480 1479 1478 1477 1477
1497 1492 1489 1489 1493 1494 1498 1512 1528 1531 1537 1534 1523 1526 1526 1513 1510 1509 1508 1507 1507 1506 1505 1504 1503 1502 1500 1499 1497 1495 1493 1491 1489 1487 1485 1484 1483 1481 1479 1478 1476 1475 1474 1474
1508 1507 1492 1489 1492 1496 1500 1508 1528 1537 1540 1534 1525 1527 1520 1510 1509 1508 1508 1507 1506 1506 1505 1503 1502 1500 1499 1497 1495 1493 1491 1488 1486 1485 1483 1481 1480 1478 1477 1475 1474 1472 1471 1470
1507 1505 1490 1487 1487 1491 1499 1508 1510 1525 1530 1535 1530 1522 1514 1509 1509 1508 1508 1507 1506 1505 1504 1502 1501 1499 1497 1495 1493 1491 1489 1486 1484 1482 1480 1479 1477 1476 1474 1473 1471 1469 1468 1467
1496 1503 1493 1489 1489 1492 1495 1504 1516 1525 1535 1538 1530 1526 1525 1515 1512 1509 1508 1507 1506 1504 1503 1501 1500 1498 1496 1494 1492 1490 1487 1485 1482 1480 1478 1476 1475 1473 1471 1470 1468 1466 1464 1463
1494 1503 1501 1496 1498 1500 1501 1507 1516 1526 1528 1536 1539 1532 1514 1513 1510 1510 1508 1507 1506 1504 1502 1500 1498 1497 1495 1492 1490 1488 1485 1483 1481 1478 1476 1474 1472 1470 1468 1467 1465 1463 1462 1461
1495 1505 1511 1503 1496 1495 1497 1504 1512 1522 1528 1532 1536 1532 1509 1509 1509 1508 1507 1505 1504 1502 1501 1499 1497 1495 1493 1490 1488 1486 1484 1482 1479 1477 1475 1473 1471 1469 1467 1465 1463 1461 1460 1459
1495 1506 1517 1514 1510 1502 1502 1504 1509 1517 1527 1534 1535 1527 1509 1508 1508 1507 1506 1504 1503 1501 1500 1498 1496 1494 1491 1489 1487 1484 1482 1480 1478 1476 1474 1471 1469 1467 1465 1463 1461 1460 1458 1457
1491 1505 1513 1518 1514 1506 1506 1506 1508 1514 1525 1528 1524 1519 1512 1509 1508 1507 1505 1504 1503 1501 1499 1497 1495 1493 1491 1488 1486 1483 1481 1479 1477 1475 1472 1470 1468 1466 1464 1462 1460 1459 1457 1455
1492 1505 1505 1505 1502 1503 1504 1505 1507 1510 1514 1519 1515 1515 1511 1509 1507 1506 1505 1504 1502 1500 1498 1496 1494 1492 1489 1487 1485 1483 1480 1478 1476 1473 1471 1469 1467 1465 1463 1461 1459 1457 1455 1453
1496 1503 1505 1507 1503 1503 1506 1504 1505 1507 1509 1512 1512 1513 1508 1507 1506 1506 1505 1503 1502 1500 1498 1496 1494 1491 1489 1487 1484 1482 1479 1477 1475 1472 1470 1468 1466 1464 1462 1459 1457 1456 1454 1452
1500 1504 1511 1515 1508 1505 1512 1506 1505 1506 1506 1508 1512 1511 1507 1507 1506 1505 1504 1503 1501 1500 1498 1495 1493 1491 1488 1486 1483 1481 1479 1477 1474 1472 1469 1467 1465 1463 1461 1459 1457 1455 1453 1451
1499 1507 1515 1517 1514 1520 1511 1501 1501 1504 1505 1505 1505 1505 1505 1506 1505 1505 1504 1502 1501 1499 1497 1494 1492 1489 1487 1485 1482 1480 1478 1476 1473 1471 1468 1466 1464 1462 1460 1458 1456 1454 1452 1451
1495 1504 1515 1521 1520 1516 1507 1501 1501 1504 1506 1503 1504 1504 1505 1505 1505 1504 1503 1502 1500 1498 1496 1494 1491 1489 1486 1484 1481 1479 1477 1474 1472 1470 1468 1466 1463 1461 1460 1458 1456 1454 1452 1450
1498 1501 1512 1519 1518 1519 1506 1498 1497 1502 1508 1502 1502 1503 1504 1504 1508 1505 1502 1500 1499 1497 1495 1493 1490 1488 1486 1483 1481 1478 1476 1473 1471 1469 1467 1465 1463 1461 1459 1457 1455 1453 1451 1449
1504 1508 1513 1517 1517 1511 1500 1497 1498 1509 1508 1500 1500 1501 1502 1503 1504 1503 1501 1499 1498 1496 1494 1492 1489 1487 1485 1482 1480 1477 1475 1472 1470 1468 1466 1464 1462 1460 1458 1456 1454 1452 1450 1448
1505 1509 1513 1517 1517 1512 1497 1497 1500 1501 1497 1497 1498 1500 1501 1501 1501 1500 1499 1498 1496 1495 1493 1491 1488 1486 1484 1482 1479 1476 1474 1471 1469 1467 1465 1463 1461 1459 1457 1455 1453 1451 1449 1447
1501 1502 1504 1507 1507 1498 1495 1495 1495 1495 1496 1497 1497 1498 1499 1499 1499 1499 1498 1497 1495 1494 1492 1490 1488 1486 1483 1481 1478 1475 1473 1470 1468 1465 1463 1461 1459 1457 1455 1453 1451 1449 1447 1446
1498 1497 1500 1501 1498 1496 1495 1494 1495 1495 1496 1496 1497 1498 1498 1498 1498 1497 1497 1495 1494 1493 1491 1489 1487 1484 1482 1480 1477 1475 1472 1469 1466 1464 1461 1459 1457 1455 1453 1451 1449 1448 1446 1444
1495 1496 1499 1500 1497 1495 1494 1494 1495 1495 1495 1496 1496 1497 1497 1497 1497 1496 1495 1494 1493 1491 1490 1488 1486 1483 1481 1479 1476 1473 1470 1467 1465 1462 1460 1457 1455 1452 1451 1449 1447 1446 1444 1442
1493 1494 1497 1497 1493 1494 1494 1494 1494 1495 1495 1495 1496 1496 1496 1496 1495 1495 1494 1493 1492 1490 1488 1486 1484 1482 1480 1477 1475 1472 1469 1466 1463 1460 1458 1455 1453 1451 1449 1447 1445 1444 1442 1441